SAS415 EDDL-EKCH

Flight info

Callsign SAS415
Flight time 1h 14m
Altitude 39000
Route MEVEL1Z/05R MEVEL Y850 BASUM M170 STADE DCT MEGAR P605 GESKA Z711 MONAK
Aircraft A20N/M-SDE2E3FGHIRWXY/LB1

Departure

Time 2026-05-07 19:53
Airport Düsseldorf Airport (EDDL)

Arrival

Time 2026-05-07 21:08
Airport Copenhagen Kastrup Airport (EKCH)
Time Latitude Longitude Altitude Speed Heading
2026-05-07 19:19 51.28484 6.77407 128 ft 0 kts 142°
2026-05-07 19:42 51.28493 6.77395 128 ft 2 kts 142°
2026-05-07 19:42 51.28505 6.77381 128 ft 2 kts 143°
2026-05-07 19:42 51.28518 6.77366 127 ft 2 kts 162°
2026-05-07 19:43 51.28532 6.77363 127 ft 2 kts 188°
2026-05-07 19:43 51.28547 6.77371 127 ft 2 kts 215°
2026-05-07 19:43 51.28554 6.77381 128 ft 0 kts 231°
2026-05-07 19:43 51.28558 6.77390 128 ft 0 kts 234°
2026-05-07 19:48 51.28553 6.77379 127 ft 4 kts 234°
2026-05-07 19:48 51.28527 6.77322 126 ft 8 kts 234°
2026-05-07 19:48 51.28488 6.77235 127 ft 10 kts 234°
2026-05-07 19:49 51.28437 6.77128 128 ft 13 kts 233°
2026-05-07 19:49 51.28381 6.77008 129 ft 10 kts 233°
2026-05-07 19:49 51.28360 6.76897 128 ft 12 kts 280°
2026-05-07 19:49 51.28416 6.76804 126 ft 6 kts 323°
2026-05-07 19:50 51.28450 6.76743 125 ft 9 kts 285°
2026-05-07 19:50 51.28426 6.76643 125 ft 12 kts 233°
2026-05-07 19:50 51.28355 6.76497 123 ft 20 kts 232°
2026-05-07 19:50 51.28253 6.76294 122 ft 25 kts 233°
2026-05-07 19:51 51.28134 6.76034 117 ft 32 kts 233°
2026-05-07 19:51 51.27992 6.75734 119 ft 34 kts 235°
2026-05-07 19:51 51.27891 6.75520 122 ft 19 kts 233°
2026-05-07 19:51 51.27843 6.75411 123 ft 8 kts 250°
2026-05-07 19:52 51.27869 6.75326 123 ft 10 kts 324°
2026-05-07 19:52 51.27938 6.75268 121 ft 12 kts 346°
2026-05-07 19:52 51.28035 6.75361 120 ft 37 kts 52°
2026-05-07 19:52 51.28351 6.76026 120 ft 109 kts 51°
2026-05-07 19:53 51.28937 6.77246 139 ft 164 kts 53°
2026-05-07 19:53 51.29627 6.78708 718 ft 169 kts 54°
2026-05-07 19:53 51.30331 6.80208 1472 ft 171 kts 54°
2026-05-07 19:53 51.31037 6.81719 2216 ft 173 kts 53°
2026-05-07 19:54 51.31785 6.83302 2675 ft 189 kts 52°
2026-05-07 19:54 51.32611 6.85029 3127 ft 206 kts 52°
2026-05-07 19:54 51.33536 6.86980 3512 ft 230 kts 53°
2026-05-07 19:54 51.34541 6.89107 4044 ft 249 kts 46°
2026-05-07 19:55 51.35985 6.90635 4710 ft 260 kts 19°
2026-05-07 19:55 51.37740 6.91215 5616 ft 262 kts
2026-05-07 19:55 51.39549 6.91667 6508 ft 265 kts
2026-05-07 19:55 51.41373 6.92130 7368 ft 269 kts
2026-05-07 19:56 51.43219 6.92610 8181 ft 274 kts
2026-05-07 19:56 51.45106 6.93108 8974 ft 279 kts
2026-05-07 19:56 51.47012 6.93615 9741 ft 283 kts
2026-05-07 19:56 51.48971 6.94029 10505 ft 288 kts
2026-05-07 19:57 51.50977 6.93957 11262 ft 292 kts 353°
2026-05-07 19:57 51.52976 6.93479 12017 ft 295 kts 349°
2026-05-07 19:57 51.55014 6.92900 12752 ft 299 kts 349°
2026-05-07 19:57 51.57056 6.92308 13480 ft 303 kts 349°
2026-05-07 19:58 51.59149 6.91708 14206 ft 307 kts 349°
2026-05-07 19:58 51.61226 6.91119 14902 ft 311 kts 349°
2026-05-07 19:58 51.63390 6.90659 15578 ft 316 kts
2026-05-07 19:58 51.65493 6.91540 16202 ft 322 kts 30°
2026-05-07 19:59 51.67200 6.93881 16900 ft 325 kts 46°
2026-05-07 19:59 51.68722 6.96596 17547 ft 329 kts 47°
2026-05-07 19:59 51.70258 6.99350 18169 ft 333 kts 47°
2026-05-07 19:59 51.71836 7.02090 18797 ft 336 kts 46°
2026-05-07 20:00 51.73431 7.04788 19408 ft 339 kts 45°
2026-05-07 20:00 51.75084 7.07534 20009 ft 342 kts 45°
2026-05-07 20:00 51.76749 7.10273 20617 ft 346 kts 44°
2026-05-07 20:00 51.78431 7.13022 21209 ft 349 kts 44°
2026-05-07 20:01 51.80145 7.15817 21794 ft 352 kts 44°
2026-05-07 20:01 51.81865 7.18619 22363 ft 355 kts 44°
2026-05-07 20:01 51.83602 7.21449 22931 ft 359 kts 44°
2026-05-07 20:01 51.85368 7.24330 23490 ft 362 kts 44°
2026-05-07 20:02 51.87148 7.27233 24042 ft 365 kts 44°
2026-05-07 20:02 51.88931 7.30145 24576 ft 368 kts 44°
2026-05-07 20:02 51.90727 7.33082 25093 ft 371 kts 44°
2026-05-07 20:02 51.92536 7.36043 25597 ft 374 kts 44°
2026-05-07 20:03 51.94367 7.39043 26096 ft 377 kts 44°
2026-05-07 20:03 51.96227 7.42094 26592 ft 380 kts 44°
2026-05-07 20:03 51.98075 7.45129 27071 ft 383 kts 44°
2026-05-07 20:03 51.99963 7.48234 27544 ft 386 kts 44°
2026-05-07 20:04 52.01841 7.51325 27997 ft 388 kts 44°
2026-05-07 20:04 52.03740 7.54456 28435 ft 390 kts 44°
2026-05-07 20:04 52.05642 7.57597 28859 ft 393 kts 44°
2026-05-07 20:04 52.07549 7.60749 29263 ft 395 kts 44°
2026-05-07 20:05 52.09464 7.63920 29654 ft 397 kts 44°
2026-05-07 20:05 52.11389 7.67110 30025 ft 399 kts 45°
2026-05-07 20:05 52.13319 7.70314 30374 ft 401 kts 45°
2026-05-07 20:05 52.15293 7.73595 30714 ft 403 kts 45°
2026-05-07 20:06 52.17211 7.76786 31024 ft 405 kts 45°
2026-05-07 20:06 52.19219 7.80131 31325 ft 408 kts 45°
2026-05-07 20:06 52.21176 7.83396 31614 ft 409 kts 45°
2026-05-07 20:06 52.23178 7.86742 31901 ft 411 kts 45°
2026-05-07 20:07 52.25167 7.90071 32173 ft 413 kts 45°
2026-05-07 20:07 52.27177 7.93440 32438 ft 414 kts 45°
2026-05-07 20:07 52.29176 7.96794 32702 ft 416 kts 45°
2026-05-07 20:07 52.31198 8.00191 32961 ft 417 kts 45°
2026-05-07 20:08 52.33216 8.03587 33197 ft 419 kts 45°
2026-05-07 20:08 52.35251 8.07016 33428 ft 421 kts 45°
2026-05-07 20:08 52.37263 8.10411 33664 ft 422 kts 45°
2026-05-07 20:08 52.39315 8.13878 33903 ft 424 kts 45°
2026-05-07 20:09 52.41365 8.17346 34135 ft 425 kts 45°
2026-05-07 20:09 52.43429 8.20844 34348 ft 426 kts 46°
2026-05-07 20:09 52.45476 8.24318 34539 ft 427 kts 46°
2026-05-07 20:10 52.49597 8.31327 34891 ft 430 kts 46°
2026-05-07 20:10 52.51662 8.34848 35045 ft 431 kts 46°
2026-05-07 20:10 52.53737 8.38392 35193 ft 433 kts 46°
2026-05-07 20:10 52.55829 8.41969 35341 ft 434 kts 46°
2026-05-07 20:11 52.57917 8.45546 35493 ft 435 kts 46°
2026-05-07 20:11 52.60002 8.49123 35633 ft 436 kts 45°
2026-05-07 20:11 52.62117 8.52755 35775 ft 438 kts 45°
2026-05-07 20:11 52.64199 8.56336 35899 ft 439 kts 46°
2026-05-07 20:12 52.66307 8.59971 36021 ft 440 kts 46°
2026-05-07 20:12 52.68417 8.63613 36143 ft 442 kts 46°
2026-05-07 20:12 52.70536 8.67276 36265 ft 443 kts 46°
2026-05-07 20:12 52.72675 8.70901 36381 ft 444 kts 44°
2026-05-07 20:13 52.74938 8.74366 36508 ft 444 kts 41°
2026-05-07 20:13 52.77297 8.77584 36655 ft 443 kts 37°
2026-05-07 20:13 52.79795 8.80613 36787 ft 443 kts 34°
2026-05-07 20:13 52.82371 8.83374 36915 ft 443 kts 31°
2026-05-07 20:14 52.85017 8.85884 37032 ft 443 kts 28°
2026-05-07 20:14 52.87735 8.88330 37150 ft 443 kts 28°
2026-05-07 20:14 52.90441 8.90743 37272 ft 444 kts 28°
2026-05-07 20:14 52.93143 8.93157 37391 ft 444 kts 28°
2026-05-07 20:15 52.95871 8.95602 37494 ft 444 kts 28°
2026-05-07 20:15 52.98566 8.98025 37611 ft 444 kts 28°
2026-05-07 20:15 53.01293 9.00484 37713 ft 445 kts 28°
2026-05-07 20:16 53.06701 9.05375 37898 ft 446 kts 28°
2026-05-07 20:16 53.12151 9.10322 38086 ft 447 kts 28°
2026-05-07 20:16 53.14843 9.12772 38193 ft 447 kts 28°
2026-05-07 20:17 53.17569 9.15256 38300 ft 447 kts 28°
2026-05-07 20:17 53.23019 9.20233 38500 ft 447 kts 28°
2026-05-07 20:17 53.25744 9.22728 38607 ft 447 kts 28°
2026-05-07 20:18 53.28469 9.25226 38693 ft 447 kts 28°
2026-05-07 20:18 53.33895 9.30213 38859 ft 448 kts 28°
2026-05-07 20:19 53.39334 9.35227 39025 ft 449 kts 28°
2026-05-07 20:19 53.44710 9.40507 39113 ft 451 kts 33°
2026-05-07 20:20 53.49675 9.46953 39122 ft 451 kts 41°
2026-05-07 20:20 53.54013 9.54441 39122 ft 451 kts 50°
2026-05-07 20:21 53.57872 9.62693 39126 ft 451 kts 52°
2026-05-07 20:21 53.61677 9.71068 39121 ft 450 kts 53°
2026-05-07 20:22 53.65465 9.79403 39127 ft 450 kts 52°
2026-05-07 20:22 53.69245 9.87724 39120 ft 451 kts 52°
2026-05-07 20:23 53.73037 9.96092 39116 ft 451 kts 52°
2026-05-07 20:23 53.76860 10.04558 39130 ft 452 kts 53°
2026-05-07 20:24 53.80633 10.12940 39125 ft 451 kts 53°
2026-05-07 20:24 53.84407 10.21351 39124 ft 450 kts 53°
2026-05-07 20:25 53.88179 10.29792 39127 ft 448 kts 53°
2026-05-07 20:25 53.91931 10.38213 39122 ft 449 kts 52°
2026-05-07 20:26 53.95691 10.46668 39120 ft 450 kts 52°
2026-05-07 20:26 53.99434 10.55119 39125 ft 451 kts 52°
2026-05-07 20:27 54.03210 10.63674 39129 ft 451 kts 52°
2026-05-07 20:27 54.06942 10.72163 39120 ft 450 kts 53°
2026-05-07 20:28 54.10674 10.80682 39134 ft 450 kts 53°
2026-05-07 20:28 54.14407 10.89231 39131 ft 449 kts 53°
2026-05-07 20:29 54.18113 10.97748 39133 ft 449 kts 53°
2026-05-07 20:29 54.21832 11.06326 39129 ft 450 kts 53°
2026-05-07 20:30 54.25528 11.14881 39116 ft 449 kts 53°
2026-05-07 20:30 54.27382 11.19185 38714 ft 452 kts 53°
2026-05-07 20:30 54.29248 11.23519 38033 ft 459 kts 53°
2026-05-07 20:30 54.31146 11.27932 37457 ft 459 kts 53°
2026-05-07 20:31 54.33015 11.32288 37016 ft 456 kts 53°
2026-05-07 20:31 54.34878 11.36643 36666 ft 450 kts 53°
2026-05-07 20:31 54.36694 11.40895 36330 ft 444 kts 53°
2026-05-07 20:31 54.38507 11.45151 35897 ft 441 kts 53°
2026-05-07 20:32 54.40306 11.49380 35444 ft 438 kts 53°
2026-05-07 20:32 54.42094 11.53593 34973 ft 435 kts 53°
2026-05-07 20:32 54.43840 11.57714 34544 ft 431 kts 53°
2026-05-07 20:32 54.45594 11.61855 34107 ft 425 kts 53°
2026-05-07 20:33 54.47381 11.65788 33628 ft 420 kts 50°
2026-05-07 20:33 54.49312 11.69534 33110 ft 417 kts 48°
2026-05-07 20:33 54.51271 11.73243 32577 ft 415 kts 48°
2026-05-07 20:33 54.53193 11.76876 32069 ft 412 kts 48°
2026-05-07 20:34 54.55100 11.80497 31566 ft 409 kts 48°
2026-05-07 20:34 54.57006 11.84129 31058 ft 406 kts 48°
2026-05-07 20:34 54.58866 11.87684 30552 ft 403 kts 48°
2026-05-07 20:34 54.60755 11.91223 30029 ft 400 kts 45°
2026-05-07 20:35 54.62820 11.94348 29488 ft 398 kts 37°
2026-05-07 20:35 54.65078 11.97096 28968 ft 394 kts 34°
2026-05-07 20:35 54.67339 11.99700 28472 ft 391 kts 34°
2026-05-07 20:35 54.69601 12.02288 27948 ft 389 kts 34°
2026-05-07 20:36 54.71825 12.04842 27432 ft 386 kts 34°
2026-05-07 20:36 54.74054 12.07413 26911 ft 383 kts 34°
2026-05-07 20:36 54.76242 12.09945 26409 ft 381 kts 34°
2026-05-07 20:36 54.78444 12.12500 25891 ft 379 kts 34°
2026-05-07 20:37 54.80615 12.15021 25393 ft 376 kts 34°
2026-05-07 20:37 54.82776 12.17539 24922 ft 373 kts 34°
2026-05-07 20:37 54.84902 12.20020 24433 ft 371 kts 34°
2026-05-07 20:37 54.87015 12.22490 23927 ft 369 kts 34°
2026-05-07 20:38 54.89146 12.24985 23436 ft 367 kts 33°
2026-05-07 20:38 54.91258 12.27459 22949 ft 365 kts 33°
2026-05-07 20:38 54.93333 12.29891 22480 ft 363 kts 33°
2026-05-07 20:38 54.95412 12.32330 22022 ft 360 kts 33°
2026-05-07 20:39 54.97487 12.34763 21551 ft 358 kts 33°
2026-05-07 20:39 54.99527 12.37157 21102 ft 356 kts 33°
2026-05-07 20:39 55.01565 12.39539 20642 ft 354 kts 33°
2026-05-07 20:39 55.03599 12.41905 20182 ft 352 kts 33°
2026-05-07 20:40 55.05640 12.44280 19716 ft 350 kts 33°
2026-05-07 20:40 55.07628 12.46601 19262 ft 349 kts 33°
2026-05-07 20:40 55.09658 12.48978 18808 ft 346 kts 33°
2026-05-07 20:40 55.11649 12.51313 18364 ft 344 kts 33°
2026-05-07 20:41 55.13620 12.53627 17936 ft 342 kts 33°
2026-05-07 20:41 55.15572 12.55920 17519 ft 339 kts 33°
2026-05-07 20:41 55.17508 12.58201 17099 ft 337 kts 33°
2026-05-07 20:41 55.19446 12.60485 16672 ft 334 kts 33°
2026-05-07 20:42 55.21350 12.62730 16266 ft 332 kts 33°
2026-05-07 20:42 55.23260 12.64931 15882 ft 328 kts 30°
2026-05-07 20:42 55.25241 12.66913 15549 ft 323 kts 29°
2026-05-07 20:42 55.27189 12.68789 15215 ft 318 kts 28°
2026-05-07 20:43 55.29111 12.70634 14892 ft 313 kts 28°
2026-05-07 20:43 55.31013 12.72467 14568 ft 309 kts 28°
2026-05-07 20:43 55.32871 12.74240 14255 ft 304 kts 26°
2026-05-07 20:43 55.34867 12.75164 13882 ft 301 kts 358°
2026-05-07 20:44 55.36847 12.74173 13491 ft 299 kts 327°
2026-05-07 20:44 55.38309 12.71588 13103 ft 298 kts 306°
2026-05-07 20:44 55.39441 12.68547 12714 ft 297 kts 304°
2026-05-07 20:44 55.40570 12.65574 12319 ft 296 kts 306°
2026-05-07 20:45 55.41779 12.62628 11927 ft 295 kts 307°
2026-05-07 20:45 55.42719 12.59446 11493 ft 297 kts 282°
2026-05-07 20:45 55.42635 12.55906 11079 ft 297 kts 250°
2026-05-07 20:45 55.41501 12.52939 10700 ft 293 kts 219°
2026-05-07 20:46 55.39865 12.50919 10460 ft 286 kts 213°
2026-05-07 20:46 55.38351 12.48679 10194 ft 281 kts 236°
2026-05-07 20:46 55.37701 12.45530 9889 ft 276 kts 270°
2026-05-07 20:46 55.38132 12.42369 9566 ft 270 kts 303°
2026-05-07 20:47 55.39483 12.40151 9049 ft 271 kts 337°
2026-05-07 20:47 55.41330 12.39596 8262 ft 280 kts 12°
2026-05-07 20:47 55.43152 12.40801 7577 ft 284 kts 29°
2026-05-07 20:47 55.44964 12.42036 6882 ft 283 kts 14°
2026-05-07 20:48 55.46912 12.42393 6166 ft 280 kts
2026-05-07 20:48 55.48712 12.43495 5349 ft 275 kts 36°
2026-05-07 20:48 55.50114 12.45748 4368 ft 279 kts 47°
2026-05-07 20:48 55.51436 12.48205 3344 ft 283 kts 44°
2026-05-07 20:49 55.52865 12.50548 1842 ft 291 kts 39°
2026-05-07 20:49 55.54317 12.52709 1383 ft 272 kts 40°
2026-05-07 20:49 55.55715 12.54925 733 ft 261 kts 41°
2026-05-07 20:49 55.57018 12.57062 1865 ft 259 kts 41°
2026-05-07 20:50 55.58281 12.59080 2904 ft 233 kts 40°
2026-05-07 20:50 55.59466 12.60855 3066 ft 216 kts 35°
2026-05-07 20:50 55.60828 12.61894 3032 ft 212 kts
2026-05-07 20:50 55.62283 12.61685 3012 ft 212 kts 347°
2026-05-07 20:51 55.63734 12.61069 2999 ft 212 kts 348°
2026-05-07 20:51 55.65168 12.60477 2992 ft 212 kts 348°
2026-05-07 20:51 55.66577 12.59766 2983 ft 214 kts 334°
2026-05-07 20:51 55.67757 12.58114 2992 ft 217 kts 317°
2026-05-07 20:52 55.68779 12.56153 2995 ft 217 kts 314°
2026-05-07 20:52 55.69755 12.54110 2993 ft 218 kts 306°
2026-05-07 20:52 55.70240 12.51587 2981 ft 224 kts 272°
2026-05-07 20:52 55.69839 12.48922 2985 ft 229 kts 238°
2026-05-07 20:53 55.68715 12.46904 2995 ft 231 kts 219°
2026-05-07 20:53 55.67411 12.45271 2993 ft 231 kts 215°
2026-05-07 20:53 55.66053 12.43683 2987 ft 231 kts 214°
2026-05-07 20:53 55.64721 12.42146 2988 ft 231 kts 216°
2026-05-07 20:54 55.63500 12.40285 2987 ft 230 kts 230°
2026-05-07 20:54 55.62466 12.38172 2990 ft 229 kts 232°
2026-05-07 20:54 55.61453 12.35973 2991 ft 229 kts 233°
2026-05-07 20:54 55.60456 12.33777 2992 ft 229 kts 232°
2026-05-07 20:55 55.59466 12.31586 2994 ft 229 kts 232°
2026-05-07 20:55 55.58475 12.29389 2993 ft 229 kts 232°
2026-05-07 20:55 55.57478 12.27182 2993 ft 229 kts 230°
2026-05-07 20:55 55.56232 12.25459 2984 ft 231 kts 202°
2026-05-07 20:56 55.54702 12.24643 2992 ft 232 kts 193°
2026-05-07 20:56 55.53126 12.24023 2990 ft 232 kts 195°
2026-05-07 20:56 55.51590 12.23133 2991 ft 232 kts 200°
2026-05-07 20:56 55.50090 12.22125 2990 ft 231 kts 201°
2026-05-07 20:57 55.48592 12.21096 2989 ft 231 kts 201°
2026-05-07 20:57 55.47098 12.20069 2989 ft 231 kts 201°
2026-05-07 20:57 55.45587 12.19030 2988 ft 231 kts 201°
2026-05-07 20:57 55.44098 12.18004 2989 ft 231 kts 201°
2026-05-07 20:58 55.42601 12.16971 2988 ft 230 kts 201°
2026-05-07 20:58 55.41139 12.15918 2987 ft 230 kts 205°
2026-05-07 20:58 55.39713 12.14733 2980 ft 221 kts 206°
2026-05-07 20:58 55.38356 12.13564 2980 ft 212 kts 206°
2026-05-07 20:59 55.37045 12.12424 2984 ft 212 kts 206°
2026-05-07 20:59 55.35684 12.11470 2977 ft 212 kts 187°
2026-05-07 20:59 55.34237 12.11778 2980 ft 210 kts 150°
2026-05-07 20:59 55.33202 12.13450 2984 ft 206 kts 113°
2026-05-07 21:00 55.32932 12.15875 2990 ft 202 kts 77°
2026-05-07 21:00 55.33399 12.18168 2997 ft 200 kts 61°
2026-05-07 21:00 55.34037 12.20301 2992 ft 199 kts 59°
2026-05-07 21:00 55.34774 12.22348 2988 ft 195 kts 50°
2026-05-07 21:01 55.35659 12.24121 2979 ft 193 kts 42°
2026-05-07 21:01 55.36664 12.25663 2744 ft 192 kts 37°
2026-05-07 21:01 55.37706 12.27127 2456 ft 192 kts 37°
2026-05-07 21:01 55.38757 12.28626 2097 ft 201 kts 38°
2026-05-07 21:02 55.39842 12.30227 1997 ft 206 kts 39°
2026-05-07 21:02 55.40939 12.31890 1992 ft 207 kts 39°
2026-05-07 21:02 55.42016 12.33554 1994 ft 209 kts 39°
2026-05-07 21:02 55.43128 12.35291 2000 ft 213 kts 40°
2026-05-07 21:03 55.44245 12.37045 2005 ft 217 kts 40°
2026-05-07 21:03 55.45393 12.38847 2011 ft 223 kts 40°
2026-05-07 21:03 55.46542 12.40650 2006 ft 222 kts 40°
2026-05-07 21:03 55.47687 12.42443 1995 ft 216 kts 39°
2026-05-07 21:04 55.48781 12.44152 1998 ft 206 kts 39°
2026-05-07 21:04 55.49789 12.45726 2064 ft 181 kts 39°
2026-05-07 21:04 55.50668 12.47096 1994 ft 157 kts 38°
2026-05-07 21:04 55.51468 12.48339 2006 ft 161 kts 38°
2026-05-07 21:05 55.52332 12.49674 1860 ft 169 kts 38°
2026-05-07 21:05 55.53215 12.51045 1611 ft 165 kts 39°
2026-05-07 21:05 55.54039 12.52327 1408 ft 151 kts 38°
2026-05-07 21:05 55.54792 12.53497 1179 ft 138 kts 38°
2026-05-07 21:06 55.55486 12.54571 986 ft 131 kts 38°
2026-05-07 21:06 55.56172 12.55634 831 ft 131 kts 39°
2026-05-07 21:06 55.56847 12.56700 669 ft 130 kts 39°
2026-05-07 21:06 55.57532 12.57745 503 ft 130 kts 39°
2026-05-07 21:07 55.58223 12.58799 317 ft 130 kts 39°
2026-05-07 21:07 55.58890 12.59842 149 ft 129 kts 39°
2026-05-07 21:07 55.59563 12.60889 15 ft 123 kts 39°
2026-05-07 21:07 55.60114 12.61731 12 ft 88 kts 40°
2026-05-07 21:08 55.60453 12.62235 15 ft 33 kts 29°
2026-05-07 21:08 55.60571 12.62312 15 ft 14 kts 17°
2026-05-07 21:08 55.60672 12.62357 15 ft 15 kts
2026-05-07 21:08 55.60778 12.62400 17 ft 15 kts 23°
2026-05-07 21:09 55.60891 12.62554 20 ft 43 kts 40°
2026-05-07 21:09 55.61330 12.63227 22 ft 120 kts 40°
2026-05-07 21:09 55.62006 12.64240 17 ft 76 kts 25°
2026-05-07 21:09 55.62291 12.64397 15 ft 30 kts 15°
2026-05-07 21:10 55.62481 12.64475 18 ft 22 kts 345°
2026-05-07 21:10 55.62503 12.64300 15 ft 6 kts 305°
2026-05-07 21:10 55.62613 12.64278 17 ft 16 kts 18°
2026-05-07 21:10 55.62641 12.64371 18 ft 8 kts 128°
2026-05-07 21:11 55.62629 12.64423 18 ft 2 kts 72°